Regional Weather Roundup
Issued by NWS

Current Version | Previous Version | Text Only | Print | Product List | Glossary On
Versions: 1 2 3 4 5 6 7 8 9 10 11 12 13 14 15 16 17 18 19 20 21 22 23 24 25 26 27 28 29 30 31 32 33 34 35 36 37 38 39 40 41 42 43 44 45 46 47 48 49 50
000
ASUS44 KLIX 210201
RWRLA
LOUISIANA WEATHER ROUNDUP
NATIONAL WEATHER SERVICE NEW ORLEANS LA
800 PM CST SAT DEC 20 2014

NOTE: "FAIR" INDICATES FEW OR NO CLOUDS BELOW 12,000 FEET WITH NO
      SIGNIFICANT WEATHER AND/OR OBSTRUCTIONS TO VISIBILITY.
      SKY/WX - SKY CONDITION AND SIGNIFICANT WEATHER.
      TMP - AIR TEMPERATURE.    DP   - DEWPOINT TEMPERATURE.
      RH  - RELATIVE HUMIDITY.  PRES - PRESSURE.
      HX  - HEAT INDEX.         WCI  - WIND CHILL INDEX.

*  THESE STATIONS ARE NOT NWS OR FAA STATIONS AND ARE NOT UNDER
   NWS QUALITY CONTROL.

LAZ040-048-061>063-065-066-069-210300-
SOUTHEAST LOUISIANA

CITY           SKY/WX    TMP DP  RH WIND       PRES   REMARKS
N.O. AUDUBON     N/A     53  50  88 MISG        N/A
N.O. INTL ARPT CLOUDY    52  47  83 NE12      30.15R
N.O. LAKEFRONT CLOUDY    54  47  77 NE20      30.15R
N.O. DOWNTOWN* CLOUDY    52  45  76 N8        30.15R
SLIDELL        CLOUDY    52  46  80 N9        30.15S
BATON ROUGE    MOCLDY    46  43  89 CALM      30.16R
BOOTHVILLE     CLOUDY    54  51  90 NE10G18   30.13R
BELLE CHASSE   CLOUDY    52  48  86 NE10      30.14R
BOGALUSA*        N/A     53  46  78 NE7       30.18S
GALLIANO*      NOT AVBL
NEW ROADS*     NOT AVBL
GONZALES*      NOT AVBL
HAMMOND*       NOT AVBL
HOUMA*         CLOUDY    51  49  93 N10       30.15S
PORT FOURCHON* CLOUDY    54  50  87 NE14G21   30.17R

$$

LAZ041-044-053-054-210300-
SOUTHWEST LOUISIANA

CITY           SKY/WX    TMP DP  RH WIND       PRES   REMARKS
LAKE CHARLES   PTCLDY    51  46  83 NE7       30.17R
LAFAYETTE      PTCLDY    48  46  93 CALM      30.17R
PATTERSON      CLOUDY    50  46  87 NE10      30.16R
SALT POINT       N/A     54  49  83 CALM      30.15R
NEW IBERIA     PTCLDY    49  46  90 NE6       30.17R
CHENAULT AIRPK CLEAR     48  46  93 N3        30.18R

$$

LAZ027-028-210300-
CENTRAL LOUISIANA

CITY           SKY/WX    TMP DP  RH WIND       PRES   REMARKS
FORT POLK      NOT AVBL
ALEXANDRIA INT PTCLDY    47  44  90 NW3       30.17R
ALEXANDRIA     PTCLDY    43  42  97 CALM      30.18R

$$

LAZ001-002-210300-
NORTHWEST LOUISIANA

CITY           SKY/WX    TMP DP  RH WIND       PRES   REMARKS
SHREVEPORT     CLEAR     40  39  97 CALM      30.21R
BARKSDALE AFB  NOT AVBL
DTN SHREVEPORT CLEAR     40  37  89 CALM      30.22R

$$

LAZ014-016-210300-
NORTHEAST LOUISIANA

CITY           SKY/WX    TMP DP  RH WIND       PRES   REMARKS
MONROE         CLEAR     44  40  85 NE6       30.21S
TALLULAH       CLEAR     45  39  79 N7        30.20S

$$




USA.gov is the U.S. government's official web portal to all federal, state and local government web resources and services.